^^
Grace C. Lehan Memorial Weather Station Historical Data
Daily Summary for June 4, 2021 Units:  English    Metric   Both
Daily Weekly Monthly Yearly
  High: Low: Average:
Temperature: 42.1 °F 31.9 °F 35.3 °F
Dew Point: 34.9 °F 30 °F 31.8 °F
Humidity: 100% 71% 87%
Wind Speed: 4.5mph 0mph 1.1mph
Wind Gust: 12mph - -
Wind- - West
Pressure: 30.00 in 29.91 in -
Precipitation: 0.01 in    
 
 
Tabular Data for June 4, 2021
Time Temperature Dew Point Pressure Wind Wind Speed Wind Gust Humidity Rainfall Rate (Hourly) solar
00:04 33.2 °F 31.7 °F 29.94 in NNW 2 mph 9 mph 94% 0.00 in 0 W/m2
00:09 33.2 °F 31.7 °F 29.94 in NNW 1.4 mph 5 mph 94% 0.00 in 0 W/m2
00:14 33.2 °F 31.7 °F 29.94 in North 1.7 mph 5 mph 94% 0.00 in 0 W/m2
00:19 33.2 °F 31.7 °F 29.94 in NW 0.9 mph 6 mph 94% 0.00 in 0 W/m2
00:24 33.2 °F 31.7 °F 29.94 in NNW 1.1 mph 6 mph 94% 0.00 in 0 W/m2
00:29 33.2 °F 31.7 °F 29.94 in NNW 1.5 mph 7 mph 94% 0.00 in 0 W/m2
00:34 33.2 °F 31.7 °F 29.94 in NNW 2 mph 7 mph 94% 0.00 in 0 W/m2
00:39 33.2 °F 31.6 °F 29.94 in NNW 1.7 mph 7 mph 94% 0.00 in 0 W/m2
00:44 33.1 °F 31.6 °F 29.94 in NNW 2.8 mph 7 mph 94% 0.00 in 0 W/m2
00:49 33.1 °F 31.6 °F 29.94 in NNW 0.9 mph 7 mph 94% 0.00 in 0 W/m2
00:54 33.1 °F 31.6 °F 29.94 in NNW 0.7 mph 7 mph 94% 0.00 in 0 W/m2
00:59 33.1 °F 31.6 °F 29.94 in NNW 1.3 mph 7 mph 94% 0.00 in 0 W/m2
01:04 33.1 °F 31.6 °F 29.94 in NNW 1.8 mph 7 mph 94% 0.00 in 0 W/m2
01:09 33.1 °F 31.6 °F 29.94 in NNW 1.3 mph 9 mph 94% 0.00 in 0 W/m2
01:14 33.1 °F 31.6 °F 29.95 in NNW 0.7 mph 9 mph 94% 0.00 in 0 W/m2
01:19 33.1 °F 31.6 °F 29.95 in NNW 1.6 mph 9 mph 94% 0.00 in 0 W/m2
01:24 33.1 °F 31.5 °F 29.95 in NNW 0.9 mph 9 mph 94% 0.00 in 0 W/m2
01:29 33.1 °F 31.5 °F 29.95 in North 0.9 mph 9 mph 94% 0.00 in 0 W/m2
01:34 33.1 °F 31.5 °F 29.95 in NNW 0.7 mph 9 mph 94% 0.00 in 0 W/m2
01:39 33.1 °F 31.5 °F 29.95 in NNW 1.6 mph 7 mph 94% 0.00 in 0 W/m2
01:44 33.1 °F 31.6 °F 29.94 in NNW 1.3 mph 7 mph 94% 0.00 in 0 W/m2
01:49 33 °F 31.5 °F 29.95 in NNW 1.2 mph 7 mph 94% 0.00 in 0 W/m2
01:54 33 °F 31.5 °F 29.95 in NNW 2.8 mph 8 mph 94% 0.00 in 0 W/m2
01:59 32.9 °F 31.3 °F 29.95 in NNW 2.3 mph 10 mph 93.6% 0.00 in 0 W/m2
02:04 32.9 °F 31.1 °F 29.95 in NNW 2 mph 10 mph 93% 0.00 in 0 W/m2
02:09 32.9 °F 31.1 °F 29.95 in NNW 1.1 mph 8 mph 93% 0.00 in 0 W/m2
02:14 32.8 °F 31 °F 29.95 in NNW 2.7 mph 8 mph 93% 0.00 in 0 W/m2
02:19 32.8 °F 31 °F 29.95 in NNW 3 mph 9 mph 93% 0.00 in 0 W/m2
02:24 32.8 °F 31 °F 29.95 in North 2.1 mph 9 mph 93% 0.00 in 0 W/m2
02:29 32.8 °F 31 °F 29.95 in North 1.5 mph 9 mph 93% 0.00 in 0 W/m2
02:34 32.8 °F 31 °F 29.95 in North 1.1 mph 9 mph 93% 0.00 in 0 W/m2
02:39 32.8 °F 31 °F 29.95 in NNW 2 mph 6 mph 93% 0.00 in 0 W/m2
02:44 32.8 °F 31 °F 29.95 in NNW 2.6 mph 9 mph 93% 0.00 in 0 W/m2
02:49 32.8 °F 31 °F 29.95 in North 1.1 mph 9 mph 93% 0.00 in 0 W/m2
02:54 32.8 °F 31 °F 29.95 in NNE 0.8 mph 9 mph 93% 0.00 in 0 W/m2
02:59 32.8 °F 31 °F 29.95 in NNW 1.3 mph 9 mph 93% 0.00 in 0 W/m2
03:04 32.8 °F 31 °F 29.95 in North 0.4 mph 9 mph 93% 0.00 in 0 W/m2
03:09 32.9 °F 31.1 °F 29.95 in North 2.4 mph 7 mph 93% 0.00 in 0 W/m2
03:14 32.9 °F 31.1 °F 29.95 in North 1.1 mph 7 mph 93% 0.00 in 0 W/m2
03:19 32.9 °F 31.1 °F 29.94 in North 1.8 mph 7 mph 93% 0.00 in 0 W/m2
03:24 32.9 °F 31.1 °F 29.94 in North 1.1 mph 7 mph 93% 0.00 in 0 W/m2
03:29 32.9 °F 31.1 °F 29.95 in NNW 1.4 mph 7 mph 93% 0.00 in 0 W/m2
03:34 32.9 °F 31.1 °F 29.95 in NNW 2.4 mph 7 mph 93% 0.00 in 0 W/m2
03:39 32.9 °F 31.1 °F 29.95 in NNW 2 mph 10 mph 93% 0.00 in 0 W/m2
03:44 32.9 °F 31.1 °F 29.95 in NNW 0.3 mph 10 mph 93% 0.00 in 0 W/m2
03:49 32.9 °F 31.1 °F 29.95 in North 1.5 mph 10 mph 93% 0.00 in 0 W/m2
03:54 32.9 °F 31.1 °F 29.95 in NNW 3.4 mph 10 mph 93% 0.00 in 0 W/m2
03:59 32.9 °F 31.1 °F 29.95 in NNW 0.4 mph 10 mph 93% 0.00 in 0 W/m2
04:00 32.8 °F 31 °F 29.95 in Calm   10 mph 93% 0.00 in 0 W/m2
04:09 32.8 °F 31 °F 29.95 in NNW 0.6 mph 5 mph 93% 0.00 in 0 W/m2
04:14 32.9 °F 31.1 °F 29.95 in Calm   5 mph 93% 0.00 in 0 W/m2
04:19 32.9 °F 31.1 °F 29.95 in NNW 1 mph 5 mph 93% 0.00 in 0 W/m2
04:24 32.9 °F 31.1 °F 29.95 in NNW 1.8 mph 7 mph 93% 0.00 in 0 W/m2
04:29 32.9 °F 31.1 °F 29.96 in NNW 1.5 mph 7 mph 93% 0.00 in 0 W/m2
04:34 32.8 °F 31 °F 29.96 in NNW 1.1 mph 7 mph 93% 0.00 in 0 W/m2
04:39 32.8 °F 31 °F 29.96 in NNW 0.8 mph 5 mph 93% 0.00 in 0 W/m2
04:44 32.8 °F 31 °F 29.96 in NNW 2.3 mph 9 mph 93% 0.00 in 0 W/m2
04:49 32.8 °F 31 °F 29.96 in NNW 1.3 mph 9 mph 93% 0.00 in 0 W/m2
04:54 32.7 °F 30.9 °F 29.96 in NNW 1.4 mph 9 mph 93% 0.00 in 0 W/m2
04:59 32.7 °F 30.9 °F 29.96 in NNW 1.2 mph 9 mph 93% 0.00 in 0 W/m2
05:04 32.6 °F 30.8 °F 29.96 in NNW 2.6 mph 9 mph 93% 0.00 in 0 W/m2
05:09 32.6 °F 30.8 °F 29.96 in NNW 2.2 mph 6 mph 93% 0.00 in 0 W/m2
05:14 32.6 °F 30.8 °F 29.96 in North 2.1 mph 7 mph 93% 0.00 in 0 W/m2
05:19 32.6 °F 30.8 °F 29.96 in NNW 2.3 mph 7 mph 93% 0.00 in 0 W/m2
05:24 32.6 °F 30.8 °F 29.96 in NNW 1.5 mph 7 mph 93% 0.00 in 0 W/m2
05:29 32.6 °F 30.8 °F 29.96 in NNW 1 mph 7 mph 93% 0.00 in 0 W/m2
05:34 32.5 °F 30.7 °F 29.96 in NNW 1.9 mph 7 mph 93% 0.00 in 0 W/m2
05:39 32.5 °F 30.7 °F 29.96 in NNW 2.4 mph 6 mph 93% 0.00 in 0 W/m2
05:44 32.5 °F 30.9 °F 29.96 in NNW 0.9 mph 6 mph 93.8% 0.00 in 0 W/m2
05:49 32.5 °F 31 °F 29.96 in NNW 0.4 mph 6 mph 94% 0.00 in 0 W/m2
05:54 32.5 °F 31 °F 29.96 in NNW 1.1 mph 6 mph 94% 0.00 in 0 W/m2
05:59 32.5 °F 31 °F 29.96 in North 1.4 mph 7 mph 94% 0.00 in 0 W/m2
06:04 32.5 °F 31 °F 29.96 in NNW 0.1 mph 7 mph 94% 0.00 in 0 W/m2
06:09 32.5 °F 31 °F 29.96 in NNW 0.3 mph 6 mph 94% 0.00 in 0 W/m2
06:14 32.5 °F 31 °F 29.96 in NNW 0.4 mph 6 mph 94% 0.00 in 0 W/m2
06:19 32.5 °F 31 °F 29.96 in NNW 0.5 mph 6 mph 94% 0.00 in 0 W/m2
06:24 32.5 °F 31 °F 29.96 in North 0.6 mph 6 mph 94% 0.00 in 0 W/m2
06:29 32.5 °F 31 °F 29.96 in NNW 0.7 mph 7 mph 94% 0.00 in 0 W/m2
06:34 32.5 °F 31 °F 29.96 in NNW 0.9 mph 7 mph 94% 0.00 in 0 W/m2
06:39 32.5 °F 31 °F 29.96 in North 0.2 mph 4 mph 94% 0.00 in 0 W/m2
06:44 32.5 °F 31 °F 29.96 in North 0.5 mph 5 mph 94% 0.00 in 0 W/m2
06:49 32.5 °F 31 °F 29.96 in North 0.5 mph 6 mph 94% 0.00 in 0 W/m2
06:54 32.4 °F 30.9 °F 29.96 in North 1.3 mph 6 mph 94% 0.00 in 0 W/m2
06:59 32.4 °F 30.9 °F 29.96 in NNW 0.9 mph 6 mph 94% 0.00 in 0 W/m2
07:04 32.4 °F 30.9 °F 29.95 in NNW 0.4 mph 6 mph 94% 0.00 in 0 W/m2
07:09 32.4 °F 30.9 °F 29.95 in Calm   3 mph 94% 0.00 in 0 W/m2
07:14 32.4 °F 30.9 °F 29.95 in North 0.3 mph 4 mph 94% 0.00 in 0 W/m2
07:19 32.3 °F 30.8 °F 29.96 in NNW 0.7 mph 6 mph 94% 0.00 in 0 W/m2
07:24 32.3 °F 30.8 °F 29.96 in NW 1.7 mph 6 mph 94% 0.00 in 0 W/m2
07:29 32.3 °F 30.7 °F 29.96 in NNW 0.1 mph 6 mph 94% 0.00 in 0 W/m2
07:34 32.2 °F 30.7 °F 29.97 in NNW 0.5 mph 6 mph 94% 0.00 in 0 W/m2
07:39 32.1 °F 30.6 °F 29.97 in NNW 0.1 mph 3 mph 94% 0.00 in 0 W/m2
07:44 32 °F 30.5 °F 29.97 in NNW 2.4 mph 9 mph 94% 0.00 in 5 W/m2
07:49 32 °F 30.4 °F 29.97 in NNW 2.3 mph 9 mph 94% 0.00 in 7 W/m2
07:54 31.9 °F 30.4 °F 29.98 in NNW 1.2 mph 9 mph 94% 0.00 in 9 W/m2
07:59 32 °F 30.6 °F 29.98 in NNW 2.4 mph 9 mph 94.6% 0.00 in 9 W/m2
08:00 32 °F 32 °F 29.97 in Calm   9 mph 100% 0.00 in 9 W/m2
08:09 32.1 °F 30.6 °F 29.98 in NNW 1.6 mph 7 mph 94% 0.00 in 7 W/m2
08:14 32.1 °F 30.6 °F 29.98 in NNW 3.1 mph 11 mph 94% 0.00 in 5 W/m2
08:19 32.1 °F 30.6 °F 29.99 in North 3.3 mph 11 mph 94% 0.00 in 7 W/m2
08:24 32.1 °F 30.6 °F 29.99 in NNW 2.1 mph 11 mph 94% 0.00 in 16 W/m2
08:29 32.1 °F 30.5 °F 29.98 in NW 0.9 mph 11 mph 93.7% 0.00 in 16 W/m2
08:34 32.2 °F 30.4 °F 29.99 in NNW 0.6 mph 11 mph 93% 0.00 in 39 W/m2
08:39 32.4 °F 30.6 °F 29.99 in NNW 0.5 mph 6 mph 93.2% 0.00 in 40 W/m2
08:44 32.7 °F 31.2 °F 29.99 in NNW 2.3 mph 7 mph 94% 0.00 in 69 W/m2
08:49 33.1 °F 31.6 °F 29.99 in NNW 0.4 mph 7 mph 94% 0.00 in 98 W/m2
08:54 33.6 °F 32.1 °F 29.99 in NNW 1.6 mph 7 mph 94% 0.00 in 97 W/m2
08:59 34 °F 32.2 °F 29.99 in North 1.4 mph 7 mph 93.1% 0.00 in 49 W/m2
09:04 34.3 °F 32.5 °F 29.99 in NNW 2.1 mph 8 mph 92.8% 0.00 in 79 W/m2
09:09 34.5 °F 32.5 °F 30.00 in North 0.9 mph 8 mph 92% 0.00 in 83 W/m2
09:14 34.9 °F 32.9 °F 30.00 in North 0.3 mph 8 mph 92% 0.00 in 83 W/m2
09:19 35.3 °F 33 °F 30.00 in NNE 0.4 mph 8 mph 91.1% 0.00 in 111 W/m2
09:24 35.6 °F 33 °F 30.00 in NE 1.5 mph 8 mph 90.3% 0.00 in 67 W/m2
09:29 35.7 °F 32.9 °F 30.00 in ENE 2.4 mph 9 mph 89.5% 0.00 in 141 W/m2
09:34 35.7 °F 32.5 °F 30.00 in NE 1.6 mph 9 mph 88% 0.00 in 155 W/m2
09:39 35.9 °F 32.7 °F 30.00 in NE 1.7 mph 6 mph 88% 0.01 in 169 W/m2
09:44 36 °F 32.8 °F 29.99 in North 2.4 mph 6 mph 88% 0.01 in 167 W/m2
09:49 36.2 °F 32.8 °F 29.99 in NNE 3.8 mph 10 mph 87.4% 0.01 in 135 W/m2
09:54 36.2 °F 32.5 °F 29.99 in NNE 1 mph 10 mph 86.1% 0.01 in 98 W/m2
09:59 36.3 °F 32.5 °F 29.99 in NE 2.5 mph 10 mph 86% 0.01 in 98 W/m2
10:04 36.3 °F 32.6 °F 29.99 in NE 1.4 mph 10 mph 86% 0.01 in 123 W/m2
10:09 36.5 °F 32.6 °F 29.99 in NE 1.3 mph 6 mph 85.7% 0.01 in 188 W/m2
10:14 36.6 °F 32.5 °F 29.99 in ENE 2.6 mph 7 mph 85% 0.01 in 287 W/m2
10:19 36.9 °F 32.8 °F 29.99 in ENE 1.9 mph 7 mph 85% 0.01 in 309 W/m2
10:24 37.3 °F 33.2 °F 29.99 in North 0.8 mph 7 mph 85% 0.01 in 241 W/m2
10:29 37.7 °F 33.6 °F 29.99 in NNW 0.1 mph 7 mph 85% 0.01 in 281 W/m2
10:34 38 °F 33.5 °F 29.98 in NNE 1.9 mph 7 mph 83.7% 0.01 in 315 W/m2
10:39 38.3 °F 33.6 °F 29.98 in NE 0.8 mph 7 mph 83% 0.01 in 469 W/m2
10:44 39.1 °F 34.5 °F 29.98 in NE 0.5 mph 7 mph 83.6% 0.01 in 499 W/m2
10:49 39.9 °F 34.8 °F 29.98 in NE 2.8 mph 7 mph 81.8% 0.01 in 475 W/m2
10:54 40.5 °F 34.8 °F 29.98 in North 1.4 mph 7 mph 80% 0.01 in 366 W/m2
10:59 40.8 °F 34.7 °F 29.98 in NNE 2.3 mph 7 mph 78.5% 0.01 in 213 W/m2
11:04 40.6 °F 33.8 °F 29.97 in NE 2 mph 11 mph 76.3% 0.01 in 241 W/m2
11:09 40.4 °F 33.8 °F 29.97 in NE 0.8 mph 11 mph 77.1% 0.00 in 322 W/m2
11:14 40.6 °F 34.6 °F 29.98 in North 1 mph 11 mph 78.8% 0.00 in 253 W/m2
11:19 40.9 °F 34.6 °F 29.97 in North 2.9 mph 11 mph 78% 0.00 in 218 W/m2
11:24 40.9 °F 34.3 °F 29.97 in North 2.7 mph 11 mph 77.2% 0.00 in 211 W/m2
11:29 40.7 °F 34 °F 29.97 in NNW 2 mph 11 mph 76.8% 0.00 in 181 W/m2
11:34 40.5 °F 33.9 °F 29.97 in North 0.9 mph 11 mph 77% 0.00 in 162 W/m2
11:39 40.2 °F 33.6 °F 29.96 in North 1.2 mph 6 mph 77% 0.00 in 183 W/m2
11:44 40.1 °F 33.6 °F 29.96 in NNW 0.4 mph 6 mph 77.6% 0.00 in 183 W/m2
11:49 40 °F 33.7 °F 29.96 in ENE 0.4 mph 6 mph 78% 0.00 in 179 W/m2
11:54 39.9 °F 33.6 °F 29.96 in NNE 1.2 mph 6 mph 78% 0.00 in 179 W/m2
11:59 39.8 °F 33.5 °F 29.96 in North 2.1 mph 7 mph 78.1% 0.00 in 113 W/m2
12:00 39.8 °F 33.5 °F 29.95 in Calm   7 mph 78% 0.00 in 62 W/m2
12:09 40.4 °F 34.6 °F 29.95 in NW 3.5 mph 10 mph 79.7% 0.00 in 257 W/m2
12:14 40.5 °F 34.3 °F 29.95 in NNW 4.5 mph 10 mph 78.3% 0.00 in 105 W/m2
12:19 40.8 °F 34.5 °F 29.95 in NNW 3.4 mph 11 mph 78% 0.00 in 557 W/m2
12:24 41.1 °F 34.5 °F 29.94 in NNW 2.4 mph 11 mph 77.2% 0.00 in 292 W/m2
12:29 41.4 °F 34.7 °F 29.94 in North 1 mph 11 mph 76.8% 0.00 in 232 W/m2
12:34 41.6 °F 34.9 °F 29.94 in North 0.5 mph 11 mph 76.6% 0.00 in 199 W/m2
12:39 41.8 °F 34.7 °F 29.94 in North 1.5 mph 4 mph 75.5% 0.00 in 227 W/m2
12:44 41.9 °F 34.5 °F 29.93 in NNW 1.2 mph 9 mph 74.8% 0.00 in 220 W/m2
12:49 41.9 °F 34.2 °F 29.93 in NNW 2.4 mph 9 mph 74% 0.00 in 214 W/m2
12:54 41.8 °F 34 °F 29.93 in NNE 0.9 mph 10 mph 73.6% 0.00 in 221 W/m2
12:59 41.7 °F 33.6 °F 29.93 in NE 2.9 mph 10 mph 72.8% 0.00 in 204 W/m2
13:04 41.5 °F 33.6 °F 29.93 in NNE 3.1 mph 11 mph 73.4% 0.00 in 230 W/m2
13:09 41.5 °F 33.9 °F 29.93 in NNW 2.4 mph 11 mph 74% 0.00 in 221 W/m2
13:14 41.8 °F 34.1 °F 29.93 in North 3.2 mph 11 mph 73.9% 0.00 in 244 W/m2
13:19 42.1 °F 33.7 °F 29.92 in North 2.2 mph 11 mph 72% 0.00 in 227 W/m2
13:24 42.1 °F 33.6 °F 29.92 in North 2.1 mph 11 mph 71.6% 0.00 in 227 W/m2
13:29 42.1 °F 33.6 °F 29.93 in North 2.4 mph 11 mph 71.7% 0.00 in 139 W/m2
13:34 41.9 °F 33.4 °F 29.93 in NNW 2.8 mph 11 mph 71.6% 0.00 in 155 W/m2
13:39 41.6 °F 33.3 °F 29.92 in NNE 1.3 mph 7 mph 72.1% 0.00 in 158 W/m2
13:44 41.5 °F 33.4 °F 29.92 in NNW 2.1 mph 11 mph 72.8% 0.00 in 181 W/m2
13:49 41.4 °F 33.4 °F 29.92 in NNW 3.7 mph 11 mph 73% 0.00 in 155 W/m2
13:54 41.4 °F 33.4 °F 29.92 in North 2.6 mph 11 mph 73% 0.00 in 202 W/m2
13:59 41.5 °F 33.5 °F 29.92 in North 3 mph 11 mph 73% 0.00 in 221 W/m2
14:04 41.7 °F 33.5 °F 29.92 in NNW 1.7 mph 11 mph 72.6% 0.00 in 193 W/m2
14:09 41.8 °F 33.5 °F 29.92 in NW 2.2 mph 9 mph 72.2% 0.00 in 216 W/m2
14:14 41.7 °F 33.2 °F 29.92 in NNW 2.7 mph 9 mph 71.5% 0.00 in 83 W/m2
14:19 41.5 °F 32.8 °F 29.92 in NNW 3.2 mph 12 mph 71% 0.00 in 40 W/m2
14:24 41 °F 32.6 °F 29.92 in NNW 1.9 mph 12 mph 71.7% 0.00 in 60 W/m2
14:29 40.6 °F 32.5 °F 29.92 in NNW 1.4 mph 12 mph 72.6% 0.00 in 46 W/m2
14:30 40.5 °F 32.5 °F 29.92 in NNW 3 mph 12 mph 73% 0.00 in 33 W/m2
15:00 39.4 °F 32.2 °F 29.91 in NW 2 mph 9 mph 75% 0.00 in 32 W/m2
15:30 39.6 °F 32 °F 29.92 in NNW 1 mph 7 mph 74% 0.00 in 23 W/m2
16:04 39.3 °F 32.3 °F 29.92 in North 0.6 mph 7 mph 75.8% 0.00 in 23 W/m2
16:09 39.2 °F 32.3 °F 29.92 in NNE 0.2 mph 4 mph 76% 0.00 in 9 W/m2
16:14 39.1 °F 32.2 °F 29.92 in Calm   4 mph 76% 0.00 in 7 W/m2
16:19 39 °F 32.1 °F 29.92 in North 0.4 mph 4 mph 76% 0.00 in 7 W/m2
16:24 38.8 °F 32.3 °F 29.92 in Calm   4 mph 77% 0.00 in 7 W/m2
16:29 38.7 °F 32.1 °F 29.92 in NNW 0.1 mph 4 mph 77% 0.00 in 5 W/m2
16:34 38.5 °F 32.1 °F 29.92 in Calm   4 mph 77.3% 0.00 in 0 W/m2
16:39 38.4 °F 32.1 °F 29.92 in Calm     78% 0.00 in 0 W/m2
16:44 38.2 °F 32 °F 29.92 in NNW 0.7 mph 4 mph 78% 0.00 in 0 W/m2
16:49 38 °F 32.1 °F 29.92 in Calm   4 mph 78.9% 0.00 in 0 W/m2
16:54 37.9 °F 31.9 °F 29.92 in Calm   4 mph 79% 0.00 in 0 W/m2
16:59 37.7 °F 31.9 °F 29.92 in Calm   4 mph 79.4% 0.00 in 0 W/m2
17:04 37.5 °F 31.9 °F 29.92 in Calm   4 mph 80% 0.00 in 0 W/m2
17:09 37.3 °F 31.7 °F 29.92 in Calm     80% 0.00 in 0 W/m2
17:14 37.1 °F 31.7 °F 29.92 in Calm     80.6% 0.00 in 0 W/m2
17:19 37 °F 31.7 °F 29.93 in Calm   1 mph 81% 0.00 in 0 W/m2
17:24 36.8 °F 31.8 °F 29.93 in Calm   1 mph 81.9% 0.00 in 0 W/m2
17:29 36.7 °F 31.7 °F 29.93 in Calm   1 mph 82% 0.00 in 0 W/m2
17:34 36.5 °F 31.7 °F 29.93 in Calm   1 mph 82.5% 0.00 in 0 W/m2
17:39 36.4 °F 31.8 °F 29.93 in Calm     83% 0.00 in 0 W/m2
17:44 36.3 °F 31.6 °F 29.93 in NNW 0.1 mph 2 mph 83% 0.00 in 0 W/m2
17:49 36.2 °F 31.6 °F 29.93 in NNW 0.1 mph 2 mph 83.3% 0.00 in 0 W/m2
17:54 36.1 °F 31.8 °F 29.93 in Calm   2 mph 84% 0.00 in 0 W/m2
17:59 36 °F 31.7 °F 29.93 in NNW 0.1 mph 2 mph 84% 0.00 in 0 W/m2
18:04 35.9 °F 31.6 °F 29.93 in Calm   2 mph 84% 0.00 in 0 W/m2
18:09 35.9 °F 31.7 °F 29.93 in Calm   2 mph 84.5% 0.00 in 0 W/m2
18:14 35.8 °F 31.7 °F 29.94 in NNW 0.1 mph 2 mph 85% 0.00 in 0 W/m2
18:19 35.6 °F 31.6 °F 29.94 in Calm   2 mph 85% 0.00 in 0 W/m2
18:24 35.5 °F 31.5 °F 29.94 in Calm   2 mph 85% 0.00 in 0 W/m2
18:29 35.4 °F 31.3 °F 29.94 in Calm   2 mph 85% 0.00 in 0 W/m2
18:34 35.3 °F 31.2 °F 29.93 in Calm   2 mph 85% 0.00 in 0 W/m2
18:39 35.3 °F 31.5 °F 29.94 in Calm     86% 0.00 in 0 W/m2
18:44 35.2 °F 31.5 °F 29.94 in Calm     86% 0.00 in 0 W/m2
18:49 35.2 °F 31.4 °F 29.93 in NNW 0.5 mph 2 mph 86% 0.00 in 0 W/m2
18:54 35.1 °F 31.4 °F 29.93 in NNW 0.1 mph 4 mph 86% 0.00 in 0 W/m2
18:59 35 °F 31.3 °F 29.93 in NNW 0.6 mph 4 mph 86% 0.00 in 0 W/m2
19:04 35 °F 31.2 °F 29.93 in NNW 0.4 mph 4 mph 86% 0.00 in 0 W/m2
19:09 34.9 °F 31.2 °F 29.93 in NNW 0.2 mph 3 mph 86.3% 0.00 in 0 W/m2
19:14 34.8 °F 31.3 °F 29.93 in Calm   3 mph 87% 0.00 in 0 W/m2
19:19 34.7 °F 31.2 °F 29.93 in Calm   3 mph 87% 0.00 in 0 W/m2
19:24 34.6 °F 31.1 °F 29.93 in Calm   3 mph 87% 0.00 in 0 W/m2
19:29 34.5 °F 31 °F 29.93 in Calm   3 mph 87% 0.00 in 0 W/m2
19:34 34.4 °F 30.9 °F 29.93 in Calm   3 mph 87% 0.00 in 0 W/m2
19:39 34.4 °F 31.1 °F 29.92 in Calm   1 mph 87.6% 0.00 in 0 W/m2
19:44 34.3 °F 31.1 °F 29.92 in Calm   1 mph 88% 0.00 in 0 W/m2
19:49 34.3 °F 31.1 °F 29.92 in Calm   1 mph 88% 0.00 in 0 W/m2
19:54 34.2 °F 31 °F 29.92 in Calm   1 mph 88% 0.00 in 0 W/m2
19:59 34.1 °F 31 °F 29.92 in Calm   1 mph 88% 0.00 in 0 W/m2
20:04 34.1 °F 30.9 °F 29.92 in Calm     88% 0.00 in 0 W/m2
20:09 34 °F 30.9 °F 29.92 in Calm     88% 0.00 in 0 W/m2
20:12 34 °F 31 °F 29.92 in Calm     88.7% 0.00 in 0 W/m2
20:19 34.1 °F 31.2 °F 29.93 in Calm     89% 0.00 in 0 W/m2
20:24 34.2 °F 31.3 °F 29.93 in Calm     89% 0.00 in 0 W/m2
20:29 34.3 °F 31.4 °F 29.93 in Calm     89% 0.00 in 0 W/m2
20:34 34.3 °F 31.5 °F 29.93 in Calm     89.5% 0.00 in 0 W/m2
20:39 34.3 °F 31.6 °F 29.93 in Calm     89.7% 0.00 in 0 W/m2
20:44 34.3 °F 31.4 °F 29.92 in Calm     89.2% 0.00 in 0 W/m2
20:49 34.3 °F 31.4 °F 29.92 in Calm     89% 0.00 in 0 W/m2
20:54 34.2 °F 31.3 °F 29.92 in Calm     89% 0.00 in 0 W/m2
20:59 33.8 °F 30.8 °F 29.92 in Calm     88.6% 0.00 in 0 W/m2
21:04 33.5 °F 30.6 °F 29.93 in Calm     89% 0.00 in 0 W/m2
21:09 33.4 °F 30.5 °F 29.93 in Calm     89% 0.00 in 0 W/m2
21:14 33.2 °F 30.3 °F 29.93 in Calm     89% 0.00 in 0 W/m2
21:19 33 °F 30.1 °F 29.93 in Calm     89% 0.00 in 0 W/m2
21:24 32.8 °F 30 °F 29.93 in Calm     89.2% 0.00 in 0 W/m2
21:25 32.7 °F 30.1 °F 29.93 in Calm     90% 0.00 in 0 W/m2
21:30 32.6 °F 30 °F 29.93 in Calm     90% 0.00 in 0 W/m2
22:00 32.7 °F 30.4 °F 29.93 in Calm     91% 0.00 in 0 W/m2
22:30 32.4 °F 30.1 °F 29.92 in Calm     91% 0.00 in 0 W/m2
23:04 32.6 °F 30.5 °F 29.92 in Calm     91.9% 0.00 in 0 W/m2
23:09 32.7 °F 30.6 °F 29.92 in Calm     92% 0.00 in 0 W/m2
23:14 32.8 °F 30.7 °F 29.92 in Calm     92% 0.00 in 0 W/m2
23:19 32.8 °F 30.8 °F 29.92 in Calm     92% 0.00 in 0 W/m2
23:24 32.9 °F 30.8 °F 29.92 in Calm     92% 0.00 in 0 W/m2
23:29 33 °F 30.9 °F 29.92 in Calm     92% 0.00 in 0 W/m2
23:34 33 °F 30.9 °F 29.91 in Calm     92% 0.00 in 0 W/m2
23:39 33.1 °F 31 °F 29.91 in Calm     92% 0.00 in 0 W/m2
23:44 33.2 °F 31.1 °F 29.91 in Calm     92% 0.00 in 0 W/m2
23:49 33.2 °F 31.1 °F 29.91 in Calm     92% 0.00 in 0 W/m2
23:54 33.3 °F 31.2 °F 29.91 in Calm     92% 0.00 in 0 W/m2
23:59 33.3 °F 31.2 °F 29.91 in Calm     92% 0.00 in 0 W/m2
Hartford County Weather
Compliments of Weather Underground - 4 mb